Hourly Data Report for January 22, 2022

TERRACE A
BRITISH COLUMBIA
Current Station Operator: NAVCAN

54°28'07.000" N
128°34'42.000" W
217.30 m
1068134
71951
YXT

Download Data

Hourly Data (January 2022)
Hourly Data Report for January 22, 2022
TIME
LST
Temp Definition
°C
Dew Point Definition
°C
Rel Hum Definition
%
Precip. Amount Definition
mm

Wind Dir Definition
10's deg

Wind Spd Definition
km/h
Visibility Definition
km
Stn Press Definition
kPa
Hmdx Definition


Wind Chill Definition


Weather Definition


00:00 3.9 1.6 85 LegendMM 19 21 16.1 100.59     LegendNANA
01:00 3.6 1.3 85 LegendMM 20 22 24.1 100.59     Mostly Cloudy
02:00 3.3 1.3 87 LegendMM 17 11 24.1 100.57     LegendNANA
03:00 2.6 0.6 87 LegendMM 16 10 32.2 100.54     LegendNANA
04:00 1.7 0.6 92 LegendMM 14 13 32.2 100.51     Clear
05:00 2.0 0.5 90 LegendMM 15 14 32.2 100.50     LegendNANA
06:00 0.3 -0.4 95 LegendMM 12 14 24.1 100.47     LegendNANA
07:00 -0.1 -0.3 99 LegendMM 12 12 32.2 100.45   -4 Clear
08:00 -0.4 -0.5 99 LegendMM 13 13 24.1 100.42   -5 LegendNANA
09:00 -0.4 -0.6 98 LegendMM 16 8 12.9 100.42   -3 LegendNANA
10:00 0.0 0.0 99 LegendMM 9 4 9.7 100.43   -1 Fog
11:00 1.1 1.0 99 LegendMM 36 3 24.1 100.43     LegendNANA
12:00 2.6 1.1 89 LegendMM 15 7 32.2 100.42     LegendNANA
13:00 3.7 1.0 82 LegendMM 15 11 32.2 100.32     Mostly Cloudy
14:00 4.2 -1.1 69 LegendMM 20 15 32.2 100.29     LegendNANA
15:00 4.7 -1.4 65 LegendMM 17 18 32.2 100.25     LegendNANA
16:00 4.6 -2.0 62 LegendMM 15 13 32.2 100.24     Mostly Cloudy
17:00 3.4 -1.9 68 LegendMM 14 5 32.2 100.13     LegendNANA
18:00 2.1 -2.2 73 LegendMM 12 9 24.1 100.10     LegendNANA
19:00 1.4 -2.1 78 LegendMM 9 9 24.1 100.11     Cloudy
20:00 1.4 -1.0 84 LegendMM 11 7 24.1 100.05     LegendNANA
21:00 3.3 -1.8 69 LegendMM 16 19 LegendMM 100.02     LegendNANA
22:00 0.7 -1.3 87 LegendMM 12 3 24.1 100.01     Cloudy
23:00 3.1 -1.2 73 LegendMM 17 13 24.1 99.95     LegendNANA

Notes on Data Quality.

Legend

  • E = Estimated
  • M = Missing
  • NA = Not Available*
  • [empty] = Indicates an unobserved value
Date modified: